[[{"header":{"parameterUnit":"m.s-1","parameterCategory":1,"la1":30.2991,"la2":30.254,"lo1":-89.0895,"lo2":-89.0444,"dy":0.0017,"dx":0.0017,"nx":28,"ny":28,"refTime":"2025-01-10T03:00:00:Z","depth":0,"parameterNumber":2,"parameterNumberName":"U-component_of_WINDS"},"data":[0,0,0,0,0,0,0,0,0,0,0,0,0,0,0,0,0,0,0,0,0,0,0,0,0,0,0,0,0,0,0,0,0,0,0,0,0,0,0,0,0,0,0,0,0,0,0,0,0,0,0,0,0,0,0,0,0,0,-9.5393,-9.5396,0,-9.5662,-9.5665,-9.5668,-9.5722,-9.572,-9.5718,-9.5716,-9.5984,-9.5993,-9.6002,0,0,0,0,0,0,0,0,0,0,0,0,0,-9.492,-9.4928,-9.5393,-9.5396,-9.54,-9.5661,-9.5665,-9.5669,-9.5723,-9.572,-9.5718,-9.5715,-9.5981,-9.5992,-9.6003,0,0,0,0,0,0,0,0,0,0,0,0,0,-9.515,-9.4931,-9.5392,-9.5458,-9.5467,-9.5661,-9.5665,-9.567,-9.5723,-9.572,-9.5717,-9.5714,-9.5978,-9.5991,-9.6004,-9.6149,0,0,-9.6046,-9.6052,0,0,0,0,0,0,0,0,-9.5137,-9.5168,-9.5445,-9.5454,-9.5464,-9.5656,-9.5597,-9.583,-9.5724,-9.5626,-9.5716,-9.5713,-9.5877,-9.5899,-9.5956,-9.6162,-9.6173,-9.6047,-9.6055,-9.6061,-9.6065,0,0,0,0,0,0,0,-9.5121,-9.5156,-9.5499,-9.5449,-9.5461,-9.5472,-9.5502,-9.5641,-9.5765,-9.5634,-9.5639,-9.567,-9.5881,-9.5942,-9.5962,-9.6177,-9.6047,-9.6059,-9.6067,-9.6072,-9.6515,-9.6518,0,0,0,0,0,0,-9.5094,-9.5143,-9.549,-9.5507,-9.529,-9.5483,-9.5516,-9.5597,-9.5764,-9.5786,-9.5672,-9.5672,-9.5921,-9.5946,-9.5972,-9.6151,-9.6061,-9.6074,-9.6081,-9.6511,-9.6516,-9.6519,0,0,0,0,0,0,-9.5084,-9.5125,-9.548,-9.5326,-9.5373,-9.5495,-9.5585,-9.5604,-9.5665,-9.5793,-9.5814,-9.5712,-9.5919,-9.5953,-9.6105,-9.6161,-9.608,-9.6092,-9.6507,-9.6513,-9.6518,-9.651,0,0,0,0,0,0,-9.507,-9.5121,-9.5178,-9.5327,-9.5381,-9.561,-9.5589,-9.5611,-9.5689,-9.5691,-9.5836,-9.5857,-9.5919,-9.6084,-9.6118,-9.6178,-9.6103,-9.6502,-9.6509,-9.6516,-9.6506,-9.6515,-9.6522,0,0,0,0,0,-9.5053,-9.5164,-9.5181,-9.5223,-9.5455,-9.5613,-9.5643,-9.5715,-9.5693,-9.5751,-9.5833,-9.5852,-9.615,-9.61,-9.6138,-9.6203,-9.6499,-9.6507,-9.6515,-9.6502,-9.6513,-9.6522,0,0,0,0,0,0,-9.5015,-9.5185,-9.5205,-9.5368,-9.5476,-9.5622,-9.5697,-9.5724,-9.5838,-9.5835,-9.5917,-9.595,-9.6096,-9.6166,-9.6106,-9.6351,-9.6323,-9.6339,-9.63,-9.6311,-9.6319,-9.6298,-9.6114,0,0,0,0,0,-9.5027,-9.5143,-9.5284,-9.5414,-9.5468,-9.5573,-9.5644,-9.5691,-9.5805,-9.585,-9.5943,-9.6051,-9.6169,-9.6245,-9.6361,-9.6518,-9.6549,-9.6582,-9.659,-9.6596,-9.6607,-9.6694,-9.6709,-9.6546,-9.6546,-9.6546,0,0,-9.5049,-9.5157,-9.5224,-9.5409,-9.5498,-9.5614,-9.5611,-9.5734,-9.582,-9.5868,-9.6017,-9.609,-9.6216,-9.6371,-9.6444,-9.6433,-9.666,-9.6606,-9.661,-9.6619,-9.6704,-9.6719,-9.6733,-9.6552,-9.6551,-9.655,0,0,-9.515,-9.5244,-9.5362,-9.5453,-9.5589,-9.5659,-9.5687,-9.583,-9.5881,-9.6033,-9.6071,-9.6174,-9.6376,-9.6464,-9.6535,-9.6672,-9.6693,-9.6708,-9.6749,-9.6832,-9.6845,-9.6857,-9.6902,-9.6918,-9.672,-9.672,-9.672,0,-9.516,-9.5339,-9.5419,-9.5541,-9.562,-9.5673,-9.5791,-9.5875,-9.604,-9.6093,-9.608,-9.6335,-9.6423,-9.6599,-9.6632,-9.669,-9.6722,-9.6689,-9.6837,-9.685,-9.6862,-9.6906,-9.6924,-9.6721,-9.6721,-9.6721,-9.672,0,-9.5344,-9.5467,-9.5546,-9.5707,-9.5796,-9.5916,-9.6012,-9.6092,-9.6132,-9.6202,-9.6356,-9.6465,-9.6603,-9.665,-9.6688,-9.6831,-9.682,-9.6821,-9.6793,-9.6877,-9.692,-9.6938,-9.6722,-9.6721,-9.6721,-9.6721,0,0,-9.5423,-9.563,-9.5657,-9.5731,-9.5886,-9.5982,-9.6104,-9.6243,-9.6308,-9.6422,-9.6524,-9.6695,-9.6698,-9.6779,-9.6829,-9.6903,-9.7001,-9.6895,-9.6899,-9.6908,-9.7162,-9.7156,-9.7175,-9.7018,-9.7022,-9.7025,-9.715,0,-9.554,-9.5761,-9.5837,-9.6019,-9.6133,-9.6186,-9.6292,-9.6398,-9.6468,-9.6573,-9.665,-9.6769,-9.6766,-9.6815,-9.6891,-9.6973,-9.7052,-9.6966,-9.711,-9.7114,-9.7073,-9.7198,-9.7194,-9.7306,-9.7168,-9.7171,-9.7173,0,-9.5704,-9.5823,-9.6016,-9.6158,-9.6209,-9.6303,-9.6435,-9.6537,-9.6657,-9.6703,-9.6795,-9.684,-9.6968,-9.6936,-9.7112,-9.7051,-9.7116,-9.7165,-9.7171,-9.7184,-9.7145,-9.721,-9.7344,-9.7359,-9.7201,-9.7199,-9.7197,0,-9.5739,-9.5947,-9.609,-9.6152,-9.6321,-9.6386,-9.6459,-9.6577,-9.6656,-9.6772,-9.6823,-9.6951,-9.702,-9.7118,-9.7196,-9.7166,-9.7363,-9.7339,-9.7402,-9.74,-9.7437,-9.7433,-9.7579,-9.7485,-9.7485,-9.7485,-9.7484,0,-9.5858,-9.5974,-9.6107,-9.6194,-9.6325,-9.6412,-9.6538,-9.6615,-9.672,-9.6821,-9.6876,-9.6969,-9.7069,-9.7175,-9.7237,-9.7371,-9.7403,-9.7442,-9.7456,-9.7435,-9.7429,-9.7474,-9.7467,-9.7489,-9.7488,-9.7488,-9.7487,0,-9.5917,-9.6012,-9.617,-9.6319,-9.6359,-9.6449,-9.6575,-9.6661,-9.6735,-9.6862,-9.6897,-9.7013,-9.714,-9.723,-9.7393,-9.7435,-9.7579,-9.7594,-9.7538,-9.7545,-9.7601,-9.7593,-9.7778,-9.7806,-9.7697,-9.7698,-9.7699,0,-9.5985,-9.6075,-9.6235,-9.6308,-9.6382,-9.6499,-9.658,-9.667,-9.6751,-9.6897,-9.6964,-9.7097,-9.7207,-9.7409,-9.7505,-9.7631,-9.7647,-9.7703,-9.7666,-9.7641,-9.7644,-9.7636,-9.7644,-9.7707,-9.7708,-9.7708,-9.7709,0,-9.6094,-9.6137,-9.6253,-9.6386,-9.6481,-9.659,-9.6698,-9.6754,-9.6863,-9.6951,-9.7084,-9.717,-9.7339,-9.7468,-9.7604,-9.7677,-9.771,-9.7721,-9.7742,-9.7718,-9.7681,-9.7699,-9.755,-9.7715,-9.7714,-9.7714,-9.7714,-9.7713,-9.6158,-9.624,-9.6365,-9.6492,-9.6584,-9.6685,-9.6773,-9.6859,-9.6972,-9.7118,-9.7164,-9.7301,-9.742,-9.7606,-9.7682,-9.7789,-9.7784,-9.7815,-9.7822,-9.7827,-9.7825,-9.7668,-9.7814,-9.7814,-9.7814,-9.7814,-9.7814,0,-9.6267,-9.6351,-9.6468,-9.6619,-9.6718,-9.6746,-9.6868,-9.6948,-9.7069,-9.7179,-9.7287,-9.7439,-9.7566,-9.7674,-9.7805,-9.787,-9.7888,-9.79,-9.7894,-9.791,-9.7823,-9.779,-9.7883,-9.7883,-9.7883,-9.7883,-9.7883,-9.7883,-9.6335,-9.6476,-9.6534,-9.672,-9.6804,-9.694,-9.7007,-9.7099,-9.7187,-9.7355,-9.7462,-9.7533,-9.7642,-9.7781,-9.7898,-9.7927,-9.797,-9.7979,-9.801,-9.7925,-9.7916,-9.7908,-9.7878,-9.7988,-9.7988,-9.8088,-9.8089,-9.809]},{"header":{"parameterUnit":"m.s-1","parameterCategory":1,"la1":30.2991,"la2":30.254,"lo1":-89.0895,"lo2":-89.0444,"dy":0.0017,"dx":0.0017,"nx":28,"ny":28,"refTime":"2025-01-10T03:00:00:Z","depth":0,"parameterNumber":3,"parameterNumberName":"V-component_of_WINDS"},"data":[0,0,0,0,0,0,0,0,0,0,0,0,0,0,0,0,0,0,0,0,0,0,0,0,0,0,0,0,0,0,0,0,0,0,0,0,0,0,0,0,0,0,0,0,0,0,0,0,0,0,0,0,0,0,0,0,0,0,8.6825,8.6826,0,8.6968,8.697,8.6971,8.6907,8.6903,8.69,8.6896,8.7038,8.7045,8.7052,0,0,0,0,0,0,0,0,0,0,0,0,0,8.6491,8.6498,8.6824,8.6826,8.6828,8.6968,8.697,8.6972,8.6907,8.6903,8.6899,8.6895,8.7036,8.7044,8.7053,0,0,0,0,0,0,0,0,0,0,0,0,0,8.6636,8.65,8.6824,8.6813,8.6813,8.6967,8.697,8.6972,8.6908,8.6903,8.6898,8.6893,8.7033,8.7043,8.7054,8.7225,0,0,8.7086,8.7091,0,0,0,0,0,0,0,0,8.6627,8.6648,8.6813,8.6814,8.6815,8.6914,8.6904,8.7057,8.691,8.6872,8.6896,8.689,8.7001,8.7014,8.7052,8.7232,8.7238,8.7087,8.7093,8.7098,8.7101,0,0,0,0,0,0,0,8.6618,8.6641,8.6881,8.6815,8.6817,8.68,8.6814,8.6933,8.6964,8.6875,8.6871,8.6889,8.7,8.7042,8.7055,8.724,8.7087,8.7096,8.7103,8.7107,8.7569,8.7575,0,0,0,0,0,0,8.6608,8.6633,8.6876,8.6885,8.6706,8.681,8.6826,8.6888,8.6963,8.6969,8.6893,8.6885,8.7026,8.7043,8.706,8.7266,8.7098,8.7108,8.7114,8.7564,8.7571,8.7577,0,0,0,0,0,0,8.6601,8.6631,8.6871,8.6758,8.6788,8.6821,8.6891,8.6893,8.6935,8.6977,8.6981,8.693,8.7023,8.7045,8.7185,8.727,8.7113,8.7122,8.7557,8.7566,8.7574,8.7681,0,0,0,0,0,0,8.6592,8.6629,8.6695,8.676,8.6794,8.6996,8.6896,8.69,8.6954,8.6945,8.7013,8.7019,8.702,8.717,8.7196,8.7282,8.7131,8.7549,8.7561,8.7571,8.767,8.7692,8.7711,0,0,0,0,0,8.658,8.6718,8.6699,8.6728,8.6878,8.7,8.7019,8.702,8.6961,8.7028,8.7055,8.7017,8.7257,8.7185,8.7214,8.7304,8.7544,8.7557,8.757,8.766,8.7688,8.7711,0,0,0,0,0,0,8.6659,8.6726,8.6705,8.6868,8.693,8.6989,8.7073,8.7049,8.7126,8.7114,8.711,8.7126,8.7272,8.7302,8.722,8.7475,8.7391,8.7411,8.745,8.7476,8.7497,8.7486,8.7139,0,0,0,0,0,8.6696,8.6791,8.6844,8.6982,8.7014,8.7039,8.7092,8.7088,8.715,8.7175,8.7212,8.7273,8.7362,8.7421,8.7505,8.7674,8.7688,8.7751,8.7772,8.7788,8.7805,8.7897,8.7926,8.7621,8.7621,8.7621,0,0,8.6771,8.682,8.688,8.7,8.7046,8.7144,8.7061,8.7167,8.724,8.7191,8.7326,8.7356,8.7424,8.758,8.765,8.7609,8.7893,8.7805,8.7819,8.7826,8.7914,8.7943,8.7969,8.763,8.7628,8.7627,0,0,8.696,8.7006,8.7127,8.7177,8.725,8.7265,8.7295,8.7359,8.7378,8.7515,8.748,8.7565,8.7719,8.7769,8.7815,8.8025,8.7993,8.8052,8.816,8.825,8.8274,8.8296,8.8371,8.8398,8.8069,8.8069,8.807,0,8.7044,8.7192,8.7192,8.7303,8.7356,8.7319,8.7441,8.7488,8.7585,8.7622,8.7576,8.7769,8.7812,8.7979,8.8031,8.8069,8.8102,8.8044,8.8271,8.8293,8.8312,8.8384,8.8412,8.8076,8.8075,8.8075,8.8074,0,8.7292,8.7395,8.7484,8.7581,8.7644,8.776,8.7777,8.7841,8.7832,8.7853,8.7993,8.8043,8.8138,8.8177,8.8168,8.8344,8.8316,8.8271,8.8187,8.8348,8.8415,8.8443,8.8086,8.8083,8.8081,8.808,0,0,8.7532,8.7629,8.7662,8.7706,8.7784,8.7863,8.7978,8.8072,8.8128,8.8196,8.8291,8.8423,8.8383,8.8434,8.843,8.851,8.8674,8.8454,8.8456,8.8493,8.8871,8.8904,8.8936,8.8653,8.8659,8.8663,8.8865,0,8.7726,8.7928,8.7933,8.8117,8.8213,8.818,8.8279,8.8338,8.8361,8.8444,8.8468,8.8562,8.8501,8.8532,8.8609,8.8637,8.8749,8.8623,8.8741,8.8745,8.8725,8.8971,8.9007,8.9195,8.8891,8.8896,8.8899,0,8.7979,8.8058,8.8253,8.832,8.836,8.8449,8.8537,8.8618,8.8683,8.8694,8.8754,8.8739,8.8855,8.8768,8.8927,8.8841,8.889,8.8912,8.8919,8.8929,8.8831,8.8988,8.9255,8.9284,8.894,8.8937,8.8934,0,8.8135,8.8289,8.8426,8.8465,8.8546,8.861,8.8646,8.8707,8.8764,8.8841,8.8878,8.8966,8.9014,8.9082,8.9092,8.9028,8.9252,8.9166,8.9263,8.9264,8.9311,8.9308,8.959,8.9344,8.9343,8.9343,8.9342,0,8.8351,8.8471,8.8498,8.8582,8.8716,8.872,8.8852,8.8883,8.8939,8.9027,8.9004,8.9087,8.9095,8.9181,8.9188,8.9319,8.9341,8.9353,8.9353,8.9355,8.9353,8.9386,8.9373,8.935,8.9349,8.9347,8.9346,0,8.8547,8.8569,8.8716,8.8782,8.8802,8.8898,8.8953,8.9034,8.9055,8.9168,8.9194,8.9227,8.9328,8.9344,8.9461,8.9466,8.9623,8.961,8.9602,8.96,8.9697,8.9687,9.0009,9.0052,8.9778,8.978,8.9783,0,8.8683,8.8775,8.8852,8.8911,8.8952,8.9046,8.9105,8.9113,8.9175,8.9259,8.9329,8.9427,8.9506,8.9668,8.9701,8.9791,8.978,8.9886,8.9793,8.9792,8.9781,8.9776,8.9785,8.9904,8.9907,8.9909,8.9911,0,8.8922,8.893,8.9016,8.9108,8.918,8.9252,8.932,8.9369,8.9386,8.9457,8.956,8.9622,8.9743,8.9841,8.993,8.9966,8.9942,8.9941,8.9968,8.9971,8.9962,8.9968,8.965,8.9933,8.9931,8.9929,8.9928,8.9927,8.9093,8.9174,8.9241,8.9339,8.9392,8.9456,8.9536,8.9568,8.9655,8.9755,8.9754,8.9868,8.9932,9.005,9.0093,9.0181,9.0146,9.0186,9.0196,9.0205,9.0215,8.9949,9.0197,9.0196,9.0196,9.0195,9.0195,0,8.9331,8.9374,8.9464,8.9561,8.9638,8.9611,8.9685,8.9751,8.9852,8.9915,8.9994,9.0114,9.0209,9.0251,9.0344,9.0407,9.0398,9.0431,9.0426,9.0435,9.024,9.0208,9.0437,9.0437,9.0436,9.0436,9.0436,9.0436,8.9465,8.9601,8.9616,8.9778,8.9819,8.9932,8.9977,9.0036,9.0087,9.0222,9.0302,9.0329,9.0384,9.0481,9.0567,9.0577,9.0613,9.0651,9.0656,9.0473,9.0448,9.0425,9.0394,9.0659,9.0659,9.0843,9.0844,9.0846]}]]